Regional Weather Roundup
Issued by NWS Kansas City/Pleasant Hill, MO

Home | Current Version | Previous Version | Graphics & Text | Print | Product List | Glossary Off
Versions: 1 2 3 4 5 6 7 8 9 10 11 12 13 14 15 16 17 18 19 20 21 22 23 24 25 26 27 28

000
ASUS43 KEAX 100210
RWREAX

WEATHER ROUNDUP FOR EASTERN KANSAS AND NORTHWEST MISSOURI
NATIONAL WEATHER SERVICE KANSAS CITY/PLEASANT HILL MO
800 PM CST FRI DEC 09 2016

KSZ040-057-103>105-MOZ028-029-037-043-100300-
...KANSAS CITY METROPOLITAN AREA...

CITY           SKY/WX    TMP DP  RH WIND       PRES   REMARKS
K.C. INTL      CLOUDY    27  10  49 S8        30.52S WCI  19
K.C. DOWNTOWN  CLOUDY    28  11  48 SE5       30.53F WCI  23
LEES SUMMIT    CLOUDY    26  11  52 SE7       30.52F WCI  18
OLATHE - IXD   CLOUDY    26  14  60 SE8       30.51F WCI  18
OLATHE - OJC   CLOUDY    25  11  55 SE6       30.51F WCI  18
LAWRENCE       CLOUDY    27  15  61 E8        30.52F WCI  19

$$

MOZ001>008-011>017-020>025-030>033-038>040-044>046-053-054-100300-
...NORTHERN AND CENTRAL MISSOURI...

CITY           SKY/WX    TMP DP  RH WIND       PRES   REMARKS
ST. JOSEPH     CLOUDY    26  10  50 SE6       30.54R WCI  19
MOSBY          CLOUDY    28  12  50 SE3       30.54S
WARRENSBURG    CLOUDY    28  12  50 SE5       30.54F WCI  23
WHITEMAN AFB   CLOUDY    26  11  55 E5        30.53F WCI  20
CLINTON        CLOUDY    27  12  54 CALM      30.56S
SEDALIA        CLOUDY    26  11  52 E3        30.56F
WARSAW         NOT AVBL
CHILLICOTHE      N/A     25   7  46 SE3       30.56F
KIRKSVILLE     CLOUDY    24  13  62 CALM      30.55F

$$

MOZ041-047>049-056>058-063>065-088>090-097-100300-
...EASTERN AND SOUTHERN MISSOURI...

CITY           SKY/WX    TMP DP  RH WIND       PRES   REMARKS
ST. LOUIS INTL PTCLDY    24  13  62 NW5       30.58R WCI  18
SPIRIT OF STL  CLEAR     18  14  84 CALM      30.59R
COLUMBIA       CLOUDY    25  13  60 CALM      30.56S
JEFFERSON CITY CLOUDY    26  10  50 CALM      30.58S
ROLLA          PTCLDY    20   9  62 CALM      30.53S
OSAGE BEACH    CLOUDY    25  11  55 CALM      30.57S
SPRINGFIELD    CLOUDY    31  13  47 CALM      30.51S
BRANSON        CLOUDY    28  16  59 E5        30.52R WCI  23
JOPLIN         CLOUDY    32  16  51 E3        30.53R
WEST PLAINS    CLOUDY    26  16  65 CALM      30.54R

$$

IAZ060-094-KSZ022-034>040-054-083-096-NEZ052-066-093-100300-
...KANSAS...SOUTHEAST NEBRASKA AND IOWA...

CITY           SKY/WX    TMP DP  RH WIND       PRES   REMARKS
TOPEKA         CLOUDY    27  15  61 SE6       30.51F WCI  20
MANHATTAN      CLOUDY    29  14  53 SE3       30.50R
EMPORIA        CLOUDY    27  13  55 S8        30.49S WCI  19
CHANUTE        CLOUDY    29  14  53 SE3       30.52S
WICHITA        MOCLDY    26  13  57 SE6       30.47R WCI  19
OMAHA          CLOUDY    22  11  62 SE10      30.53R WCI  11
LINCOLN        CLOUDY    23  14  68 SE6       30.50F WCI  16
FALLS CITY     CLOUDY    25  14  63 SE5       30.52R WCI  19
LAMONI         CLOUDY    22  12  65 CALM      30.52F
DES MOINES     CLOUDY    23  11  60 SW6       30.53F WCI  16

$$





USA.gov is the U.S. government's official web portal to all federal, state and local government web resources and services.